Погода Илыинский

Погода Илыинский : погода сейчас, прогноз погоды и архив. Всё, что Вы хотите узнать о погоде Илыинский!

Хотите узнать прогноз погоды Илыинский? Тогда Вам сюда: Погода Илыинский

Поиск расширенной информации на нашем сайте:

Другие новости

Новости СМИ2

Главная страница сайта

Новости сайта

03.07.2017

Напоминаем, что на нашем специализированном сайте Метеоцентр.Азия вы можете получить высокодетализированные автоматические прогнозы погоды по пунктам России, СНГ и мира в авиационном формате (включающие направление и скорость ветра, видимость, явления погоды, количество и форму облачности, нижнюю и верхнюю границу облачности).

Рекомендуем: Проверенные лично мной дженерики виагры. Доставка виагры в день заказа.

Погода Илыинский - сегодня

Время (UTC), дата Ветер
(°,м/с) 
Видим.   Явления Облачность Т
(°С)
Тd
(°С)
f(%) Тe
(°С)
Pmin
(гПа)
dP
(гПа)
Po
(мм)
O2
(г/м3)
Тmin Tmax R s Состояние
почвы
06 16.10.17 300 (СЗ) 7-10{13}  20000 м  в посл. час крупа  10/6 600 м кучево-дожд., верхняя 
[Cb cap|Ci fib]
+5.9 -3.7 50 +3  1020.8  -0.1  764  302           
09 16.10.17 290 (З) 5-8{13}  10 км  в посл. час ливневой дождь  8/8 600 м кучево-дожд. 
[Cb cap]
+5.1 -3.5 54 +3  1021.8  765  303    +6.9  0.0     
12 16.10.17 340 (С) 3-5{13}  10 км  {ливн. осадки}  10/8 600 м кучево-дожд., верхняя 
[Cb cap|Ci sp]
+4.5 -4.6 52 +3  1022.3  0.5  765  304           
15 16.10.17 290 (З) 5-8{11}  10 км    10/10 600 м кучево-дожд. 
[Cb cap]
+5.4 -6.8 41 +3  1021.7  -0.6  765  303           
18 16.10.17 310 (СЗ) 3-4{09}  10 км    10/3 600 м кучево-дожд., верхняя 
[Cb cap|Ci fib]
+4.2 -6.2 47 +3  1021.3  -0.4  764  304           
21 16.10.17 100 (В) 2-3{06}  20000 м    10/6 600 м кучево-дожд., верхняя 
[Cb cap|Ci fib]
+0.9 -4.6 67 1020.5  -0.8  764  307  -2.3        влажная 
00 17.10.17 100 (В) 4-5{05}  20000 м    8/3 1000 м верхняя 
[Cu med, cong|Ci fib]
+6.3 -4.8 45 +5  1019.3  -1.1  763  301           
03 17.10.17 200 (Ю) 4-6{06}  20000 м    10/3 1000 м верхняя 
[Cu med, cong|Ci sp]
+8.2 -4.9 39 +7  1017.2  -2.1  761  298           
06 17.10.17 240 (ЮЗ) 8-12{12}  20000 м  слаб. ливневой дождь  10/10 600 м кучево-дожд. 
[Cb cap]
+3.2 +1.2 87 1017.1  -0.1  761  303           
09 17.10.17 060 (СВ) 2-3{12}  10 км  {ливн. осадки}  10/8 600 м кучево-дожд., верхняя 
[Cb cap|Ci fib]
+1.3 +0.2 92 +1  1017.4  0.2  761  305    +8.3     
12 17.10.17 190 (Ю) 1-1{04}  10 км  {ливн. осадки}  10/6 600 м кучево-дожд., верхняя 
[Cb cap|Ci fib]
+0.5 -0.3 94 +1  1018.4  1.1  762  307           
15 17.10.17 050 (СВ) 2-3{03}  10 км  слаб. ливневой дождь  10/10 600 м кучево-дожд. 
[Cb cap]
+1.3 +0.5 94 +1  1019.7  1.3  763  306           
18 17.10.17 020 (С) 2-3{08}  10 км  {ливн. осадки}  10/8 600 м кучево-дожд., верхняя 
[Cb cap|Ci fib]
-0.1 -4.1 74 -1  1021.5  1.7  764  309           
21 17.10.17 110 (В) 2-2{03}  20000 м    3/3 600 м кучево-дожд., верхняя 
[Cb cap|Ci fib]
-2.8 -4.7 87 -4  1023  1.5  765  312  -2.8      замёрзшая 
00 18.10.17 020 (С) 2-3{04}  20000 м    3/3 1000 м 
[Cu hum]
+2.8 -3.7 62 +2  1024.2  1.5  766  306  -3.6         
03 18.10.17 300 (СЗ) 4-7{07}  20000 м    4/4 1000 м кучево-дожд. 
[Cb cap]
+5 -3.1 56 +3  1024.4  0.2  767  304           
06 18.10.17 300 (СЗ) 7-11{11}  20000 м    3/3 1000 м 
[Cu hum]
+3.8 -6.9 45 +1  1024.9  0.5  767  306           
09 18.10.17 010 (С) 3-4{11}  10 км    3/3 1000 м 
[Cu med, cong]
+0.8 -5 65 -1  1026  1.1  768  309    +5.3       
12 18.10.17 080 (В) 1-1{04}  10 км    ясно 
-2.4 -4.9 83 -2  1026.6  0.5  768  313           
15 18.10.17 090 (В) 2-2{03}  10 км    10/0 верхняя 
[Ci fib]
-2 -3.8 87 -3  1026.2  -0.3  768  312           
18 18.10.17 110 (В) 2-3{03}  10 км    10/0 верхняя 
[Ci sp]
-2.6 -4.6 86 -4  1026  -0.3  768  313           
21 18.10.17 110 (В) 2-4{04}  20000 м    8/8 600 м кучево-дожд. 
[Cb cap]
-0.1 -4.9 70 -1  1025.7  -0.3  767  310  -2.9        замёрзшая 
00 19.10.17 130 (ЮВ) 2-3{05}  20000 м    8/4 600 м кучево-дожд., верхняя 
[Cb cap|Ci fib]
+5.4 -2.5 57 +5  1025.3  -0.4  767  303           
03 19.10.17 200 (Ю) 8-11{11}  20000 м    10/10 600 м кучево-дожд. 
[Cb cap]
+6.5 -0.5 61 +4  1023.8  -1.4  766  302           
06 19.10.17 200 (Ю) 7-10{13}  20000 м  слаб. ливневой дождь  10/10 600 м кучево-дожд. 
[Cb cap]
+6.1 +1 70 +3  1023.2  -0.6  766  302           
Время (UTC), дата Ветер
(°,м/с) 
Видим.   Явления Облачность Т
(°С)
Тd
(°С)
f(%) Тe
(°С)
Pmin
(гПа)
dP
(гПа)
Po
(мм)
O2
(г/м3)
Тmin Tmax R s Состояние
почвы

Для получения пояснительной информации подведите курсор к названию столбца.

ПОГОДА Илыинский - архив

Всё, что Вы хотите узнать о погоде Илыинский - удобно и подробно!

Выберите нужную дату (начиная с 1 января 2015* года) и нажмите кнопку "Найти".
Будут отображены архивные сводки погоды по пункту Илыинский, начиная с указанной даты.


Отображать данные в формате CSV (для использования в таблицах Excel)


Внимание! Наш архив погоды предназначен исключительно для личного некоммерческого использования в познавательных целях. Если Вам необходимы официальные справки о состоянии погоды (для производственных, юридических, коммерческих и т.п. целей), обращайтесь в органы Росгидромета.

*Примечание: данная дата относится к архиву по метеостанциям СССР (Россия, СНГ, Балтия).
Архив по метеостанциям Зарубежной Европы и Азии (кроме Китая) хранится 10 дней, по другим регионам земного шара (Китай, Африка, Америка, Австралия, Океания) - 1 день.

Илыинский - район местоположения метеостанции


Название, широта, долгота, высота метеостанции:
Илыинский 48°ш. 142.2°д. 18 м над ур. моря [Российская Федерация]

Дополнительная информация

В oтличие oт бoльшинства пoгoдных сайтoв мы публикуем пoдрoбную метеoинфoрмацию в детальнoм прoфессиoнальнoм фoрмате.

Характеристики температуры и влажнoсти вoздуха измеряются на высoте 2 м в тени вдали oт зданий и деревьев.
Скoрoсть ветра измеряется на высoте 10 м (на урoвне рoста челoвека скoрoсть ветра ниже в 1.5-2 раза). Если метеoстанция нахoдится в гoрoде или в лесу, тo скoрoсть ветра занижена на 2-4 м/с пo сравнению с oткрытым местoм. Скoрoсть ветра над акватoриями крупных рек и oзёр, а также на вершинах хoлмoв на 2-5 м/с выше, чем в oбычных услoвиях.
Атмoсфернoе давление в разных тoчках местнoсти мoжет значительнo oтличаться oт давления на метеoстанции, в зависимoсти oт услoвий рельефа (при пoдъёме на 10 м давление пoнижается примернo на 1 мм рт.ст.).